Location: Casteau
(50.5142°N, 4.0161°E)
Time: 05:40:19
(UTC+00:00)

Vanguard 1 Rocket - Pass Details

Date: 27 July 2021
Orbit: 650 x 4226 km, 34.3° (Epoch: 21 September)

Event Time Altitude Azimuth Distance (km) Brightness Sun altitude
Rises 12:52:42 0° 245° (WSW) 6,268 12.1 56.2°
Reaches altitude 10° 12:58:20 10° 235° (SW) 4,583 11.6 55.8°
Maximum altitude 13:06:58 26° 186° (S) 2,476 10.7 55.1°
Drops below altitude 10° 13:12:28 10° 132° (SE) 2,808 10.1 54.6°
Sets 13:14:59 0° 118° (ESE) 3,479 10.4 54.4°
